C/2004 P1 (NEAT)                                                      

Epoch 2003 July 20.0 TT = JDT 2452840.5  

T 2003 Aug. 8.94762 TT                                  Nakano

q   6.0141366            (2000.0)            P               Q

z  +0.0002125      Peri.   16.59867     +0.47762049     +0.74392237

 +/-0.0000037      Node   284.19391     -0.85088645     +0.25919528

e   0.9987220      Incl.   28.82352     -0.21879422     +0.61595237

From 141 observations 2003 May 11-2005 Aug. 30, mean residual 0".69.

   (1/a)org.= +0.000022, (1/a)fut.= -0.000098 (+/-0.000004), Q= 8.

Residuals in seconds of arc 

2003/                     040820 850  0.5+  0.0     040913 246  0.1-  0.2+  

030511 608  0.7-  2.0-    040820 850  1.7-  0.6-    040914 D74 (1.2+  2.5+) 

030708 608  1.1+  0.8+    040821 170  0.1-  0.5-    040914 D74  0.1-  0.1-  

030721 608  0.5+  0.2+    040821 170  0.4+  0.5-    040914 D74  1.1+  0.4-  

2004/                     040821 170  0.8+  0.4-    040916 118  0.3+  0.3+  

040805 644  0.5+  0.2-    040821 A02  0.5+  1.8+    040916 118  1.0-  0.2+  

040805 644  0.2-  1.4+    040822 A02 (0.7+  2.2+)   040917 204  0.4+  0.4+  

040805 644  0.0   0.5+    040822 A02  0.5-  1.3+    040917 204  0.5-  0.3-  

040807 644  0.1-  0.5+    040822 104  1.4-  1.2+    040918 J56  0.1-  0.8+  

040807 644  0.4+  0.5-    040822 104 (3.1-  0.4+)   040922 213  0.7+  0.2-  

040807 644  0.5+  0.5+    040822 104  0.3-  0.1-    040922 213  0.3+  0.4+  

040807 J87  0.8-  0.7-    040901 673  0.3+  0.1+    040922 213  0.1-  0.4-  

040807 J87  0.2-  0.7-    040901 673  0.5+  0.0     041004 213  0.2-  0.9-  

040807 246  0.6-  0.4+    040901 673  0.5+  0.0     041004 213  0.1+  0.5-  

040807 246  0.7-  0.4+    040901 673  0.6+  0.1+    041004 213  0.2+  0.3-  

040807 246  1.0-  0.4+    040902 213 (2.7+  1.0+)   041006 D74  0.6+  1.4+  

040807 246  0.8-  0.4+    040904 213 (2.6+  0.1-)   041006 D74  0.6-  0.6+  

040807 246  0.4-  0.6+    040904 213  1.3-  0.1+    041006 360  0.3-  0.6-  

040807 J87  1.2+  1.1-    040904 213  1.7-  0.3-    041006 360  0.2-  0.7-  

040807 557  0.1-  0.4-    040904 213 (2.1-  0.3-)   041006 360  0.4+  0.0   

040807 J95  0.4-  0.9-    040906 215  0.4-  0.9-    041006 D74  0.2+  0.5-  

040807 J95  0.6-  1.4-    040906 215  0.2-  0.5-    041007 850  1.4+  1.3+  

040807 J95  0.6+  0.5-    040906 215  0.2+  0.5-    041007 850  0.4-  0.3-  

040807 557  0.8-  0.3-    040908 360  0.0   0.5+    041010 213  0.4+  1.3-  

040808 850  0.8-  0.5+    040908 360  0.3+  0.2-    041010 213  0.3+  1.2-  

040808 850 (2.4-  0.1-)   040908 360  0.1-  0.6+    041010 213  1.0+  1.4-  

040808 246  0.9+  0.9+    040908 213  1.2-  0.8+    041011 170  0.8-  0.8-  

040808 246  0.5+  1.5+    040908 213  0.6-  0.3+    041013 360  0.2+  0.0   

040808 246  0.1+  0.0     040908 213  0.5-  1.3+    041013 360  0.2-  0.1+  

040808 246  0.4+  0.5-    040909 213  0.3-  0.9-    041013 360  0.3-  0.1+  

040808 246  0.3+  0.6-    040909 213  0.3-  0.7-    041013 360  0.3-  0.2+  

040808 151  0.7-  0.4+    040909 213  0.2-  0.5-    041013 170  0.7+  0.0   

040808 151  0.5-  0.0     040910 213  1.9-  1.1-    041013 170  0.1+  0.4+  

040809 673  0.1+  0.5+    040910 213  1.4-  1.6-    041013 170  0.1+  0.5+  

040809 673  0.0   1.0+    040910 213  1.2-  1.4-    041015 213  0.7+  0.7-  

040809 673  0.5+  0.2+    040910 246  0.5+  0.1+    041015 213  1.0+  0.1-  

040809 673  0.4+  0.5+    040910 246  0.5+  0.5+    041016 A02 (0.5-  2.3-) 

040809 644  0.3+  0.4+    040910 246  0.4+  0.2-    041102 213  0.1+  0.6-  

040809 644  0.3+  0.6+    040910 246  0.5+  0.3-    041102 213  0.0   0.4-  

040809 644  0.6+  0.3+    040910 246  0.3+  0.3-    041102 213  0.1-  0.1-  

040809 D74  0.2-  0.2+    040911 850  0.9-  0.9-    041104 360  0.3+  0.7+  

040809 D74  0.8-  0.3+    040911 850  1.0+  0.4-    041104 360  0.2-  0.5+  

040809 D74  0.6-  0.2-    040911 850  0.7+  0.7-    041104 360  0.3+  0.5+  

040811 D74  1.9+  1.8+    040911 850  0.1+  0.8-    2005/                   

040811 D74  0.8+  0.3+    040912 213  0.1+  0.7+    050107 204  0.4+  0.2-  

040811 D74  2.0+  0.7-    040912 213  0.2-  0.7+    050107 204  0.8-  1.1+  

040815 204  1.7-  0.2+    040912 213  0.2+  0.7+    050811 A79 (3.3-  5.4-) 

040817 213  0.5+  0.7-    040912 213  0.2+  0.9+    050811 A79 (4.8-  2.5-) 

040817 213  0.4+  0.7-    040913 246  0.3+  0.2-    050829 461  0.3+  1.0-  

040817 213  0.2+  0.7-    040913 246  0.1-  0.9+    050830 461  0.7+  0.2+  

040819 372  0.3+  0.4+    040913 246  0.1-  0.0                             

040819 372  0.6-  1.2+    040913 246  0.2-  0.0                             



NAKANO

         **** Don't distribute anyone except personal use only ****

                (C) Copyright 2005 OAA/ComputingSection

write mail from CFAD0::NAKANO on 2005-09-12 05:45:24(JST).

 

    C/2004 P1 (NEAT)                                                      

Epoch 2003 July 20.0 TT = JDT 2452840.5  

T 2003 Aug. 8.46917 TT                                  Nakano

q   6.0122234            (2000.0)            P               Q

z  +0.0001091      Peri.   16.53978     +0.47689653     +0.74437891

 +/-0.0000592      Node   284.19680     -0.85113315     +0.25834556

e   0.9993440      Incl.   28.82475     -0.21941299     +0.61575775

From 132 observations 2004 Aug. 5-Nov. 4, mean residual 0".64.

   (1/a)org.= -0.000081, (1/a)fut.= -0.000201 (+/-0.000059), Q= 5.



NAKANO

         **** Don't distribute anyone except personal use only ****

                (C) Copyright 2004 OAA/ComputingSection

write mail from CFAD0::NAKANO on 2004-12-09 01:41:38(JST).

 

◎C/2004 P1の軌道と予報位置です



 久万の中村彰正氏によると,11月4日の CCD全光度は19.8等でした.

観測がのびれば,原初軌道の1/aは,プラスに変わるでしょう.



    C/2004 P1 (NEAT)                                                      

Epoch 2003 July 20.0 TT = JDT 2452840.5  

T 2003 Aug. 8.46917 TT                                  Nakano

q   6.0122234            (2000.0)            P               Q

z  +0.0001091      Peri.   16.53978     +0.47689653     +0.74437891

 +/-0.0000592      Node   284.19680     -0.85113315     +0.25834556

e   0.9993440      Incl.   28.82475     -0.21941299     +0.61575775

From 132 observations 2004 Aug. 5-Nov. 4, mean residual 0".64.

   (1/a)org.= -0.000081, (1/a)fut.= -0.000201 (+/-0.000059), Q= 5.

 

Date/        TT  R.A.(2000) Decl.     Delta   r     Daily motion  Mag.  Moon Age

              h    h  m       。  ,                      ,  / PA 。  m1      。

2004 Nov.  5 12  21 26.37  +11 02.9   6.497  6.791     3.2 / 111  18.8  148  .48

           6 12  21 26.57  +11 01.8   6.514  6.794     3.3 / 109  18.8  151  .38

           7 12  21 26.79  +11 00.7   6.532  6.798     3.4 / 108  18.8  149  .29

           8 12  21 27.01  +10 59.6   6.549  6.801     3.6 / 107  18.8  143  .20

           9 12  21 27.24  +10 58.6   6.567  6.804     3.7 / 105  18.8  134  .12

          10 12  21 27.48  +10 57.6   6.584  6.807     3.8 / 104  18.8  123  .06

          11 12  21 27.73  +10 56.7   6.602  6.810     3.9 / 103  18.8  111  .02

          12 12  21 27.99  +10 55.8   6.619  6.813     4.0 / 102  18.9   99  .00

          13 12  21 28.26  +10 55.0   6.637  6.817     4.1 / 101  18.9   86  .01

          14 12  21 28.53  +10 54.2   6.655  6.820     4.2 / 100  18.9   74  .05

          15 12  21 28.82  +10 53.5   6.673  6.823     4.4 /  99  18.9   61  .12

          16 12  21 29.11  +10 52.8   6.691  6.826     4.5 /  98  18.9   49  .20

          17 12  21 29.41  +10 52.2   6.708  6.830     4.6 /  97  18.9   39  .31

          18 12  21 29.72  +10 51.6   6.726  6.833     4.7 /  96  18.9   32  .42

          19 12  21 30.04  +10 51.1   6.744  6.836     4.8 /  96  18.9   29  .53

          20 12  21 30.36  +10 50.6   6.762  6.839     4.9 /  95  18.9   32  .64

          21 12  21 30.70  +10 50.2   6.780  6.842     5.0 /  94  18.9   39  .74

          22 12  21 31.04  +10 49.9   6.798  6.846     5.2 /  93  18.9   48  .82

          23 12  21 31.39  +10 49.6   6.816  6.849     5.3 /  93  18.9   58  .89

          24 12  21 31.74  +10 49.3   6.834  6.852     5.4 /  92  18.9   69  .95

          25 12  21 32.11  +10 49.1   6.852  6.855     5.5 /  91  18.9   80  .98

          26 12  21 32.48  +10 49.0   6.870  6.859     5.6 /  91  19.0   90 1.00

          27 12  21 32.86  +10 48.9   6.887  6.862     5.7 /  90  19.0  101 1.00

          28 12  21 33.25  +10 48.9   6.905  6.865     5.8 /  90  19.0  111  .97

          29 12  21 33.64  +10 48.9   6.923  6.869     5.9 /  89  19.0  121  .93

          30 12  21 34.04  +10 49.0   6.941  6.872     6.0 /  89  19.0  131  .88

     Dec.  1 12  21 34.45  +10 49.2   6.959  6.875     6.1 /  88  19.0  139  .81

           2 12  21 34.87  +10 49.4   6.976  6.878     6.2 /  88  19.0  146  .74

           3 12  21 35.29  +10 49.7   6.994  6.882     6.3 /  87  19.0  151  .65

           4 12  21 35.72  +10 50.0   7.012  6.885     6.4 /  87  19.0  151  .55

           5 12  21 36.16  +10 50.4   7.029  6.888     6.5 /  86  19.0  147  .45

NAKANO

         **** Don't distribute anyone except personal use only ****

                (C) Copyright 2004 OAA/ComputingSection

write mail from CFAD0::NAKANO on 2004-11-10 01:06:21(JST).

 

    C/2004 P1 (NEAT)                                                      

T 2003 Aug. 8.25936 TT                                  Nakano

q   6.0113990            (2000.0)            P               Q

                   Peri.   16.52262     +0.47651256     +0.74468349

                   Node   284.18495     -0.85128281     +0.25801030

e   1.0            Incl.   28.81680     -0.21966647     +0.61553001

From 127 observations 2004 Aug. 5-Oct. 15.



NAKANO

         **** Don't distribute anyone except personal use only ****

                (C) Copyright 2004 OAA/ComputingSection

write mail from CFAD0::NAKANO on 2004-11-03 02:43:59(JST).

 



    C/2004 P1 (NEAT)                                                      

